Regional Weather Roundup
Issued by NWS Jackson, KY

Home | Current Version | Previous Version | Graphics & Text | Print | Product List | Glossary On
Versions: 1 2 3 4 5 6 7 8 9 10 11 12 13 14 15 16 17 18 19 20 21 22 23 24 25 26 27
000
ASUS43 KJKL 241310
RWRJKL

EAST KENTUCKY HOURLY WEATHER ROUNDUP
NATIONAL WEATHER SERVICE JACKSON KY
900 AM EDT SUN SEP 24 2017

NOTE: "FAIR" INDICATES FEW OR NO CLOUDS BELOW 12,000 FEET WITH
NO SIGNIFICANT WEATHER AND/OR OBSTRUCTIONS TO VISIBILITY.

* THESE REPORTS ARE NOT UNDER NWS QUALITY CONTROL AND MAY NOT
  REPORT WEATHER SUCH AS PRECIPITATION AND FOG.

KYZ079-080-083-085-087-088-110-112-115-119-120-241400
...EASTERN KENTUCKY...

CITY           SKY/WX    TMP DP  RH WIND       PRES   REMARKS
JACKSON        SUNNY     68  61  78 E5        30.14S
LONDON         SUNNY     66  62  87 CALM      30.12S
SOMERSET*      SUNNY     64  64 100 CALM      30.13R
MONTICELLO*    SUNNY     69  66  90 VRB6      30.13R
WILLIAMSBURG*  SUNNY     66  66 100 CALM      30.12S
MIDDLESBORO*   SUNNY     64  63  97 CALM      30.15S
HARLAN APT*    CLOUDY    61  59  94 CALM      30.16S
PIKE CO APT*     N/A     65  62  90 CALM      30.16S
BIG SANDY APT* SUNNY     63  62  97 CALM      30.15S
MOREHEAD APT*  SUNNY     70  59  68 VRB5      30.14S
$$

KYZ035-036-041-042-044-050-067-078-099-241400
...CENTRAL KENTUCKY...

CITY           SKY/WX    TMP DP  RH WIND       PRES   REMARKS
MT STERLING*   SUNNY     64  61  88 CALM      30.14S
FLEMING/MASON* SUNNY     65  62  89 NE3       30.15S
DANVILLE*      SUNNY     64  61  88 CALM      30.12S
LEXINGTON      SUNNY     70  63  78 CALM      30.12R
FRANKFORT      SUNNY     69  61  75 E6        30.10R
LOUISVILLE     MOSUNNY   73  64  73 NE3       30.08S
LEBANON*         N/A     66  63  88 CALM      30.10S
GLASGOW*       SUNNY     68  67  97 CALM      30.09S
BOWLING GREEN  SUNNY     69  66  90 CALM      30.08R
$$

KYZ091>093-OHZ055-061-077-WVZ005-015-034-035-042-241400
...SOUTHERN OHIO/WEST VIRGINIA...

CITY           SKY/WX    TMP DP  RH WIND       PRES   REMARKS
COVINGTON      MOSUNNY   70  63  78 E8        30.12R
COLUMBUS       SUNNY     72  59  63 SE5       30.15R
DAYTON         SUNNY     69  60  73 E3        30.15S
WILMINGTON     SUNNY     66  61  84 E7        30.15R
HUNTINGTON     MOSUNNY   64  59  83 N5        30.14R
CHARLESTON     MOSUNNY   59  57  93 CALM      30.16S
PINEVILLE*     SUNNY     58  56  94 MISG      30.24S
BECKLEY        SUNNY     65  55  70 CALM      30.21S
BLUEFIELD      SUNNY     60  51  72 E3        30.24R
LOGAN CO APT*    N/A     66  61  82 CALM      30.17S
$$

VAZ002-007-008-TNZ017-027-036-066-071-241400
...SOUTHWEST VIRGINIA/EAST TENNESSEE...

CITY           SKY/WX    TMP DP  RH WIND       PRES   REMARKS
WISE*          SUNNY     68  54  60 SE3       30.22S
JONESVILLE*      N/A     64  61  88 CALM      30.18S
ABINGDON*      SUNNY     64  57  80 E5        30.19S
BRISTOL        MOSUNNY   64  60  87 CALM      30.17R
MORRISTOWN*    SUNNY     70  61  73 E6        30.12S
SEVIERVILLE*   SUNNY     66  63  88 CALM      30.12R
KNOXVILLE      PTSUNNY   69  65  86 E3        30.11R
LAFOLLETTE*    SUNNY     68  66  94 CALM      30.16S
OAK RIDGE      MOSUNNY   68  65  90 CALM      30.13S
CROSSVILLE     SUNNY     66  64  93 CALM      30.15S
NASHVILLE      MOSUNNY   71  69  93 CALM      30.08R
$$

...KEY TO REMARKS...
VSB - VISIBILITY IN MILES
WCI - WIND CHILL INDEX
HX  - HEAT INDEX

$$




USA.gov is the U.S. government's official web portal to all federal, state and local government web resources and services.